Terug naar catalogus

STARLINK-6233

ActiefCommunicatieVLEO
NORAD 57229·PAYLOAD·🇺🇸 United States

Gelanceerd Jul 7, 2023 vanaf Vandenberg Space Force Base

Loading…

Volgende Passages (komende 24 uur)

TLE

VersSource: CelesTrak SupGP

Epoch: Sep 15, 2026, 02:55 UTC

1 57229C 23094M   26258.12201389 -.00079568  00000+0 -28814-2 0  2581
2 57229  43.0049  41.1781 0001926 271.5946  85.0030 15.27623958    16

Volg STARLINK-6233 in realtime met AllMySat

Download on the App Store